{"data":{"norad_id":68433,"epoch":"2026-09-19T08:04:21.980064Z","epoch_age_seconds":169368,"freshness":"FRESH","line1":"1 68433U 26067T   26262.33636551  .00002896  00000+0  14504-3 0  9996","line2":"2 68433  97.4670 219.3639 0007528  92.4668 267.7428 15.18152632 26210","mean_motion":15.18152632,"eccentricity":0.0007528,"inclination_deg":97.467,"raan_deg":219.3639,"arg_perigee_deg":92.4668,"mean_anomaly_deg":267.7428,"bstar":0.00014504,"rev_number":2621,"period_min":94.852122879302,"perigee_km":506.23754434502,"apogee_km":516.61046739546,"semimajor_km":6889.5610058702,"source":"CELESTRAK","updated_at":"2026-09-20T09:00:24.203103Z"}}